CORPUS CHRISTI, TX 60NM SSE of Corpus Christi, TX (42020)

Conditions for Monday

Daily
Weekly
Monthly
Marine Data Graph

Current Weather/Wave Observations

Air Temperature: 74° F
Humidity: 67
Wind direction (W Dir): East (95 - 104 Degrees)
Wind Speed (W Spd): 5.8 kts (6.7 mph)
Wind Gust (W Spd): 7.8 kts (8.9 mph)
Dominant Wave Period (DWP): 5 sec
Dominant Wave Height (DWH): 0.98 ft
Dominant Wave Range (DWR): exactly 1.0 ft
Atmospheric Pressure (AP): 29.95 in

Updated: 10:50 PM CST on November 18, 2019

Marine & Boating Location Search

Enter a coastal zip code for marine weather.

Current Wave Detail Observations

Water Depth: 276 ft
Wave Height: 0.92 ft
Spectral Peak Period: 5.6 sec
Average Wave Period: 3.5 sec
Sampling Interval: 0.6 sec
Wave Record: 2400 sec

Updated: 10:00 PM CST on November 18, 2019

General Information

Location: 26.968 North -96.694 West
Buoy Type: 3-meter discus buoy
Buoy Hull: 3DV26
Payload: ARES payload
Owned by: NDBC
Windspeed: Measured by obtained from anemometer
Sea Surface: Measured by Intake

Weather and Wave Data

Time Temp Humidity Wind Dominant Wave Wind Wave Wave Swell Pressure
  Air
(°F)
Water
(°F)
  Dir Speed
(kts)
Speed
(mph)
Period
(sec)
Height
(ft)
Range
(ft)
Period
(sec)
Height
(ft)
Range
(ft)
Period
(sec)
Height
(ft)
Range
(ft)
Atmo.
(in)
Tend.
(in)
20:20 73 76 63 ESE 3.9 4.5 - - - - - - 30.01 -
20:30 73 76 64 ESE 3.9 4.5 - - - - - - 30.01 -
21:20 73 76 64 ESE 5.8 6.7 - - - - - - 30.01 -
21:50 73 76 65 ESE 5.8 6.7 7 1.31 exactly 1.3 - - - 7 1.64 0.82 - 2.46 30.01 -
22:10 73 76 66 SE 5.8 6.7 - - - - - - 30.01 -
22:20 73 76 66 ESE 3.9 4.5 - - - - - - 30.01 -
22:40 73 76 66 ESE 5.8 6.7 - - - - - - 30.01 -
23:20 73 76 66 SE 5.8 6.7 - - - - - - 30.01 -
23:30 73 76 66 SE 5.8 6.7 - - - - - - 30.01 -
23:40 73 76 66 SE 3.9 4.5 - - - - - - 30.01 -
23:50 73 76 66 SE 3.9 4.5 6 1.31 exactly 1.3 - - - 6 1.64 0.82 - 2.46 30.00 -
00:00 73
-
66 SSE 3.9 4.5 - - - - - - 30.01 -
00:10 73
-
66 SE 3.9 4.5 - - - - - - 30.00 -
00:20 73 76 67 SE 3.9 4.5 - - - - - - 30.00 -
00:30 73 76 68 SE 3.9 4.5 - - - - - - 30.00 -
00:40 73 76 68 ESE 3.9 4.5 - - - - - - 29.99 -
01:20 74 76 65 NW 3.9 4.5 - - - - - - 29.99 -
01:40 74
-
66 West 5.8 6.7 - - - - - - 29.99 -
02:30 73 76 69 West 5.8 6.7 - - - - - - 29.98 -
02:40 73 76 69 West 5.8 6.7 - - - - - - 29.98 -
02:50 73 76 69 West 5.8 6.7 6 1.31 exactly 1.3 - - - 6 1.64 0.82 - 2.46 29.97 -
03:20 73 76 69 West 7.8 8.9 - - - - - - 29.97 -
03:50 73 76 71 WNW 5.8 6.7 7 1.31 exactly 1.3 - - - 7 1.64 0.82 - 2.46 29.97 -
04:00 72 76 72 WNW 5.8 6.7 - - - - - - 29.97 -0.02
04:20 72 76 72 West 5.8 6.7 - - - - - - 29.97 -
04:30 72 76 71 West 5.8 6.7 - - - - - - 29.97 -
04:40 72 76 72 West 5.8 6.7 - - - - - - 29.97 -
04:50 72 76 71 WNW 5.8 6.7 7 0.98 exactly 1.0 - - - 7 1.64 0.82 - 2.46 29.97 -
05:10 72 76 73 West 5.8 6.7 - - - - - - 29.97 -
05:20 72 76 74 WNW 5.8 6.7 - - - - - - 29.97 -
05:30 72
-
72 WNW 5.8 6.7 - - - - - - 29.97 -
05:40 72 76 71 WNW 5.8 6.7 - - - - - - 29.97 -
05:50 72
-
72 WNW 5.8 6.7 7 0.98 exactly 1.0 - - - 7 1.64 0.82 - 2.46 29.97 -
06:10 72 76 72 West 5.8 6.7 - - - - - - 29.97 -
06:20 72 76 71 West 5.8 6.7 - - - - - - 29.98 -
06:30 72 76 72 West 5.8 6.7 - - - - - - 29.98 -
06:40 72 76 72 West 5.8 6.7 - - - - - - 29.98 -
07:10 72 76 71 West 5.8 6.7 - - - - - - 29.99 -
07:20 72 76 71 West 5.8 6.7 - - - - - - 29.99 -
08:00 72
-
72 West 7.8 8.9 - - - - - - 30.01 +0.04
08:20 72 76 72 West 7.8 8.9 - - - - - - 30.01 -
08:40 72 76 73 West 7.8 8.9 - - - - - - 30.01 -
08:50 71 76 76 West 7.8 8.9 6 0.98 exactly 1.0 - - - 6 1.64 0.82 - 2.46 30.01 -
09:00 71 76 76 West 7.8 8.9 - - - - - - 30.01 +0.04
09:20 71 76 77 West 7.8 8.9 - - - - - - 30.01 -
09:30 71 76 77 WNW 7.8 8.9 - - - - - - 30.01 -
09:50 71 76 78 WNW 7.8 8.9 6 0.98 exactly 1.0 - - - - - - 30.01 -
10:10 71 76 78 WNW 7.8 8.9 - - - - - - 30.01 -
10:40 71 76 78 NW 5.8 6.7 - - - - - - 30.00 -
10:50 72 76 75 NW 5.8 6.7 7 0.98 exactly 1.0 - - - - - - 30.00 -
11:10 72 76 75 NW 5.8 6.7 - - - - - - 30.00 -
11:40 72 76 74 NW 5.8 6.7 - - - - - - 29.99 -
11:50 72 76 73 NNW 3.9 4.5 0.66 exactly 0.7 - - - - - - 29.98 -
12:10 72 76 73 NNW 5.8 6.7 - - - - - - 29.97 -
12:20 72 76 73 NNW 5.8 6.7 - - - - - - 29.96 -
12:30 72 76 74 NNW 5.8 6.7 - - - - - - 29.96 -
12:50 72 76 74 North 5.8 6.7 0.66 exactly 0.7 - - - - - - 29.95 -
13:20 72 76 72 North 5.8 6.7 - - - - - - 29.94 -
13:30 73 76 72 NNE 7.8 8.9 - - - - - - 29.93 -
13:40 72 76 75 NNE 7.8 8.9 - - - - - - 29.92 -
13:50 72 76 75 NE 7.8 8.9 0.66 exactly 0.7 - - - - - - 29.91 -
14:00 72 76 75 NNE 7.8 8.9 - - - - - - 29.91 -0.09
14:10 72 76 74 NE 7.8 8.9 - - - - - - 29.91 -
14:30 72 76 74 NNE 9.7 11.2 - - - - - - 29.90 -
14:50 72 76 73 NNE 9.7 11.2 6 0.98 exactly 1.0 - - - - - - 29.90 -
15:00 72
-
72 NE 9.7 11.2 - - - - - - 29.90 -0.07
15:10 72 76 73 NE 9.7 11.2 - - - - - - 29.90 -
15:20 72 76 74 NE 7.8 8.9 - - - - - - 29.89 -
15:30 72 76 74 NE 7.8 8.9 - - - - - - 29.89 -
15:40 72 76 73 NE 7.8 8.9 - - - - - - 29.89 -
15:50 72 76 73 NE 7.8 8.9 3 1.31 exactly 1.3 3 1.64 0.82 - 2.46 - - - 29.89 -
16:10 72 76 73 NE 7.8 8.9 - - - - - - 29.90 -
16:20 72 76 74 NE 7.8 8.9 - - - - - - 29.90 -
16:40 72 76 74 NE 7.8 8.9 - - - - - - 29.90 -
17:10 72 76 74 ENE 7.8 8.9 - - - - - - 29.91 -
17:30 72 76 73 NE 7.8 8.9 - - - - - - 29.91 -
17:40 72 76 74 NE 5.8 6.7 - - - - - - 29.91 -
17:50 72 76 74 ENE 7.8 8.9 3 1.31 exactly 1.3 3 1.64 0.82 - 2.46 - - - 29.92 -
18:00 72 76 74 ENE 7.8 8.9 - - - - - - 29.91 +0.01
18:10 72 76 74 ENE 7.8 8.9 - - - - - - 29.92 -
18:20 72 76 74 ENE 7.8 8.9 - - - - - - 29.92 -
18:30 72 76 72 ENE 7.8 8.9 - - - - - - 29.92 -
18:50 72 76 74 ENE 7.8 8.9 3 0.98 exactly 1.0 3 1.64 0.82 - 2.46 - - - 29.93 -
19:00 72 76 74 ENE 7.8 8.9 - - - - - - 29.93 +0.03
19:10 72 76 74 ENE 7.8 8.9 - - - - - - 29.93 -
19:20 73 76 72 ENE 7.8 8.9 - - - - - - 29.93 -
19:30 72 76 74 ENE 7.8 8.9 - - - - - - 29.93 -
20:40 73 76 70 East 7.8 8.9 - - - - - - 29.94 -
20:50 73 76 70 East 7.8 8.9 5 0.98 exactly 1.0 - - - - - - 29.94 -
21:10 73 76 71 ESE 7.8 8.9 - - - - - - 29.94 -
21:20 73 76 71 East 7.8 8.9 - - - - - - 29.94 -
21:30 73 76 72 East 5.8 6.7 - - - - - - 29.94 -
21:40 73 76 72 East 5.8 6.7 - - - - - - 29.95 -
22:10 73 76 70 East 5.8 6.7 - - - - - - 29.95 -
22:20 74 76 68 East 5.8 6.7 - - - - - - 29.95 -
22:50 74 76 67 East 5.8 6.7 5 0.98 exactly 1.0 - - - - - - 29.95 -

Detailed Wave Spectra

Time Water Depth Wave Height Spectral Peak Period Average Wave Period Sampling Interval Wave Record
21:00 276 ft 1.41 ft 7.1 sec 4.5 sec 0.6 sec 2400 sec
22:00 276 ft 1.38 ft 6.7 sec 4.4 sec 0.6 sec 2400 sec
23:00 276 ft 1.25 ft 6.7 sec 4.4 sec 0.6 sec 2400 sec
01:00 276 ft 1.18 ft 5.9 sec 4.4 sec 0.6 sec 2400 sec
12:00 276 ft 0.82 ft 4.7 sec 0.6 sec 2400 sec
13:00 276 ft 0.79 ft 4.8 sec 0.6 sec 2400 sec
16:00 276 ft 1.25 ft 2.9 sec 3.2 sec 0.6 sec 2400 sec
17:00 276 ft 1.18 ft 3.0 sec 3.3 sec 0.6 sec 2400 sec
20:00 276 ft 1.02 ft 3.1 sec 3.6 sec 0.6 sec 2400 sec
21:00 276 ft 0.92 ft 5.3 sec 3.5 sec 0.6 sec 2400 sec
22:00 276 ft 0.92 ft 5.6 sec 3.5 sec 0.6 sec 2400 sec